Terminal Aerodrome Forecast
Issued by NWS Indianapolis, IN

Home | Current Version | Previous Version | Text Only | Print | Product List | Glossary On
Versions: 1 2 3 4 5 6 7 8 9 10 11 12 13 14 15 16 17 18 19 20 21 22 23 24 25 26 27 28
000
FTUS43 KIND 010500
TAFIND
TAF
KIND 010527Z 0106/0212 12007KT 1SM -SN VV012
      TEMPO 0106/0110 VRB03KT 1/2SM SN FZFG VV008
     FM011000 18003KT 1SM -SN OVC002
     FM011400 29005KT 1SM -SN OVC004
     FM012100 29006KT P6SM OVC015
     FM020300 29008KT P6SM OVC025=

USA.gov is the U.S. government's official web portal to all federal, state and local government web resources and services.